{"data":{"norad_id":58510,"intl_designator":"2023-191C","name":"STARLINK-30989","alt_names":[],"object_type":"PAYLOAD","status":"ACTIVE","operator":null,"country":"US","launch_date":"2023-12-07","launch_site_code":"AFETR","launch_vehicle":null,"mission":null,"orbit_class":"UNKNOWN","rcs_meters":null,"size_class":null,"mass_kg":null,"dimensions":null,"purposes":["comms"],"wikipedia_slug":null,"has_3d_model":false,"image_url":null,"decayed_at":null,"tle_current":{"epoch":"2026-05-25T00:44:32.106624Z","epoch_age_seconds":66328,"freshness":"FRESH","line1":"1 58510U 23191C   26145.03092716  .00008456  00000+0  31640-3 0  9990","line2":"2 58510  43.0019  32.5670 0001718 268.0967  91.9688 15.27585334137179","mean_motion":15.27585334,"eccentricity":0.0001718,"inclination_deg":43.0019,"raan_deg":32.567,"arg_perigee_deg":268.0967,"mean_anomaly_deg":91.9688,"bstar":0.0003164,"rev_number":13717,"period_min":94.266419554405,"perigee_km":481.8543751439,"apogee_km":484.21187319856,"semimajor_km":6861.1701241712,"source":"CELESTRAK","updated_at":"2026-05-25T13:38:18.655569Z"}}}